Regional Weather Roundup
Issued by NWS Cleveland, OH

Home | Current Version | Previous Version | Text Only | Print | Product List | Glossary Off
Versions: 1 2 3 4 5 6 7 8 9 10 11 12 13 14 15 16 17 18 19 20 21 22 23 24 25 26 27 28 29 30 31 32 33 34 35 36 37 38 39 40 41 42 43 44 45 46 47 48 49 50

000
ASUS41 KCLE 291510
RWRCLE
OHIO REGIONAL WEATHER ROUNDUP
NATIONAL WEATHER SERVICE CLEVELAND, OH
1100 AM EDT SUN MAR 29 2015

NOTE: "FAIR" INDICATES FEW OR NO CLOUDS BELOW 12,000 FEET WITH NO
SIGNIFICANT WEATHER AND/OR OBSTRUCTIONS TO VISIBILITY.

OHZ001>008-015>018-024>027-034-035-043-044-291600-
   NORTHWEST OHIO

CITY           SKY/WX    TMP DP  RH WIND       PRES   REMARKS
DEFIANCE       SUNNY     35  20  54 S16       30.25F WCI  25
FINDLAY        SUNNY     36  20  52 S16       30.28R
TOLEDO EXPRESS SUNNY     35  17  47 S12G24    30.25F WCI  27
TOLEDO EXEC    SUNNY     35  15  44 S17G25    30.27F WCI  25
LIMA           SUNNY     34  19  54 S17       30.27S WCI  23
$$

OHZ009>014-019>023-028>033-038-089-291600-
   NORTHEAST OHIO

CITY           SKY/WX    TMP DP  RH WIND       PRES   REMARKS
CLE-HOPKINS    MOSUNNY   35  15  44 S12       30.31F WCI  27
CLE-LAKEFRONT  SUNNY     36  13  38 S14G23    30.29F
CUY CO. ARPT   MOSUNNY   34  16  47 SW14      30.30F WCI  24
LORAIN-ELYRIA  SUNNY     33  18  53 SW14      30.29F WCI  23
ASHTABULA      SUNNY     32  15  49 SW9       30.30S WCI  24
AKRON-CANTON   MOSUNNY   33  15  47 SW15      30.29F WCI  23
WOOSTER        SUNNY     31  18  58 S14       30.29F WCI  21
MANSFIELD      SUNNY     31  14  49 S20G25    30.27F WCI  19
YOUNGSTOWN     MOSUNNY   32  15  49 SW9       30.29F WCI  24
$$

OHZ042-051>053-060>062-070>072-077>081-291600-
  SOUTHWEST OHIO

CITY           SKY/WX    TMP DP  RH WIND       PRES   REMARKS
CINC-COVINGTON MOSUNNY   38  17  42 S13       30.31F
CINC-LUNKEN    SUNNY     36  16  44 S14       30.35F
HAMILTON       SUNNY     37  15  40 VRB6      30.34F
DAYTON         PTSUNNY   36  17  46 S12       30.32R
WRIGHT-PAT AFB SUNNY     35  15  43 S14       30.31F WCI  26
DAYTON GENERAL SUNNY     34  16  47 S14       30.31F WCI  25
WILMINGTON     SUNNY     34  18  52 S14       30.32S WCI  25
$$

OHZ036-037-039>041-045>050-054>059-063>069-073>076-082>088-291600-
  CENTRAL AND SOUTHEAST OHIO

CITY           SKY/WX    TMP DP  RH WIND       PRES   REMARKS
COLUMBUS       MOSUNNY   33  11  39 S15       30.34F WCI  23
OSU AIRPORT    SUNNY     34  12  40 S17       30.32F WCI  23
BOLTON FIELD   MOSUNNY   32  16  51 SE16      30.34S WCI  21
RICKENBACK AFB SUNNY     33  14  45 S13       30.34S WCI  23
NEWARK         SUNNY     33  13  43 S13       30.33F WCI  24
MARION         SUNNY     33  16  49 SW16      30.30F WCI  23
LANCASTER      SUNNY     34  11  38 S12       30.35S WCI  25
ZANESVILLE     SUNNY     31  14  49 S15       30.34F WCI  20
NEW PHILLY     SUNNY     33  15  47 VRB7      30.34F WCI  27
$$


USA.gov is the U.S. government's official web portal to all federal, state and local government web resources and services.